When you browse on this site, cookies collect data to enhance your experience and personalize the content and advertising you see.
Visit our Privacy Policy to learn more. By continuing to use the site, you agree to this use of cookies and data.
  • în România
  • Lista ţărilor
  • Pe 7 zile
  • Temperatura apei
  • Hartă satelitară
  • Meteo pe hartă
  • Widget-uri
  • user-avatar
    Intrare

    Meteo pe oră la Ísafjörður

    Astăzi, 20 Ianuarie, Duminică

    Timp Temperatura Precipitaţii Vânt Presiune Umiditate
    00:00 -6°C° 0.1 mm 5 m/s 725 mmHg 79%
    01:00 -6°C° 0.1 mm 5 m/s 725 mmHg 79%
    02:00 -6°C° 0.1 mm 6 m/s 725 mmHg 77%
    03:00 -6°C° 0.1 mm 6 m/s 725 mmHg 76%
    04:00 -6°C° 0 mm 5 m/s 725 mmHg 77%
    05:00 -6°C° 0 mm 5 m/s 725 mmHg 77%
    06:00 -6°C° 0 mm 5 m/s 725 mmHg 77%
    07:00 -6°C° 0 mm 5 m/s 724 mmHg 76%
    08:00 -6°C° 0.2 mm 6 m/s 724 mmHg 77%
    09:00 -6°C° 0.2 mm 7 m/s 724 mmHg 77%
    10:00 -4°C° 0 mm 7 m/s 724 mmHg 76%
    11:00 -5°C° 0.3 mm 8 m/s 724 mmHg 76%
    12:00 -5°C° 0.3 mm 8 m/s 724 mmHg 76%
    13:00 -6°C° 0.3 mm 8 m/s 724 mmHg 76%
    14:00 -6°C° 0 mm 8 m/s 723 mmHg 77%
    15:00 -6°C° 0 mm 7 m/s 722 mmHg 78%
    16:00 -5°C° 0 mm 6 m/s 722 mmHg 79%
    17:00 -6°C° 0.4 mm 7 m/s 719 mmHg 83%
    18:00 -6°C° 0.4 mm 8 m/s 717 mmHg 88%
    19:00 -6°C° 0.4 mm 8 m/s 715 mmHg 93%
    20:00 -5°C° 0.4 mm 8 m/s 714 mmHg 89%
    21:00 -4°C° 0.4 mm 8 m/s 713 mmHg 86%
    22:00 -2°C° 0.4 mm 8 m/s 713 mmHg 82%
    23:00 -4°C° 0 mm 8 m/s 712 mmHg 81%

    Mâine, 21 Ianuarie, Luni

    Timp Temperatura Precipitaţii Vânt Presiune Umiditate
    00:00 -4°C° 0 mm 7 m/s 712 mmHg 80%
    01:00 -6°C° 0 mm 7 m/s 712 mmHg 79%
    02:00 -6°C° 0 mm 6 m/s 712 mmHg 80%
    03:00 -5°C° 0 mm 4 m/s 711 mmHg 82%
    04:00 -5°C° 0 mm 2 m/s 711 mmHg 84%
    05:00 -5°C° 0.1 mm 2 m/s 711 mmHg 86%
    06:00 -5°C° 0.1 mm 2 m/s 711 mmHg 87%
    07:00 -4°C° 0.1 mm 1 m/s 710 mmHg 89%
    08:00 -4°C° 0 mm 1 m/s 710 mmHg 89%
    09:00 -4°C° 0 mm 1 m/s 710 mmHg 89%
    10:00 -4°C° 0 mm 1 m/s 709 mmHg 89%
    11:00 -6°C° 0 mm 2 m/s 709 mmHg 89%
    12:00 -6°C° 0 mm 2 m/s 709 mmHg 88%
    13:00 -7°C° 0 mm 3 m/s 708 mmHg 88%
    14:00 -7°C° 0.2 mm 2 m/s 708 mmHg 89%
    15:00 -7°C° 0.2 mm 2 m/s 708 mmHg 90%
    16:00 -7°C° 0.2 mm 1 m/s 708 mmHg 91%
    17:00 -6°C° 0.1 mm 1 m/s 708 mmHg 90%
    18:00 -7°C° 0.1 mm 2 m/s 709 mmHg 89%
    19:00 -7°C° 0.1 mm 2 m/s 709 mmHg 89%
    20:00 -7°C° 0.1 mm 2 m/s 710 mmHg 89%
    21:00 -6°C° 0.1 mm 2 m/s 711 mmHg 89%
    22:00 -6°C° 0.1 mm 2 m/s 712 mmHg 89%
    23:00 -6°C° 0.1 mm 2 m/s 713 mmHg 88%

    Poimâine, 22 Ianuarie, Marţi

    Timp Temperatura Precipitaţii Vânt Presiune Umiditate
    00:00 -6°C° 0.1 mm 2 m/s 714 mmHg 87%
    01:00 -6°C° 0.1 mm 2 m/s 714 mmHg 86%
    02:00 -7°C° 0 mm 3 m/s 715 mmHg 85%
    03:00 -8°C° 0 mm 3 m/s 716 mmHg 84%
    04:00 -9°C° 0 mm 4 m/s 716 mmHg 83%
    05:00 -9°C° 0 mm 4 m/s 717 mmHg 83%
    06:00 -9°C° 0 mm 4 m/s 718 mmHg 83%
    07:00 -9°C° 0 mm 4 m/s 719 mmHg 83%
    08:00 -9°C° 0 mm 4 m/s 719 mmHg 83%
    09:00 -8°C° 0 mm 3 m/s 720 mmHg 83%
    10:00 -8°C° 0 mm 3 m/s 721 mmHg 83%
    11:00 -8°C° 0 mm 3 m/s 721 mmHg 83%
    12:00 -8°C° 0 mm 3 m/s 722 mmHg 84%
    13:00 -7°C° 0 mm 2 m/s 722 mmHg 84%
    14:00 -7°C° 0 mm 2 m/s 723 mmHg 84%
    15:00 -7°C° 0 mm 2 m/s 723 mmHg 84%
    16:00 -7°C° 0 mm 2 m/s 723 mmHg 84%
    17:00 -8°C° 0 mm 3 m/s 724 mmHg 84%
    18:00 -8°C° 0 mm 3 m/s 724 mmHg 84%
    19:00 -8°C° 0 mm 3 m/s 725 mmHg 84%
    20:00 -8°C° 0 mm 3 m/s 725 mmHg 85%
    21:00 -8°C° 0 mm 3 m/s 725 mmHg 87%
    22:00 -8°C° 0 mm 3 m/s 725 mmHg 88%
    23:00 -8°C° 0 mm 3 m/s 726 mmHg 89%

    23 Ianuarie, Miercuri

    Timp Temperatura Precipitaţii Vânt Presiune Umiditate
    00:00 -9°C° 0 mm 3 m/s 726 mmHg 90%
    01:00 -8°C° 0 mm 2 m/s 726 mmHg 91%
    02:00 -8°C° 0 mm 2 m/s 726 mmHg 91%
    03:00 -8°C° 0 mm 2 m/s 726 mmHg 91%
    04:00 -8°C° 0 mm 2 m/s 726 mmHg 90%
    05:00 -8°C° 0 mm 2 m/s 726 mmHg 90%
    06:00 -9°C° 0 mm 2 m/s 727 mmHg 89%
    07:00 -9°C° 0 mm 2 m/s 727 mmHg 89%
    08:00 -9°C° 0 mm 2 m/s 727 mmHg 88%
    09:00 -9°C° 0 mm 2 m/s 727 mmHg 87%
    10:00 -9°C° 0 mm 2 m/s 727 mmHg 87%
    11:00 -9°C° 0 mm 2 m/s 728 mmHg 86%
    12:00 -9°C° 0 mm 2 m/s 728 mmHg 84%
    13:00 -8°C° 0 mm 2 m/s 728 mmHg 83%
    14:00 -9°C° 0 mm 2 m/s 728 mmHg 81%
    15:00 -9°C° 0 mm 2 m/s 728 mmHg 79%
    16:00 -9°C° 0 mm 2 m/s 728 mmHg 77%
    17:00 -9°C° 0 mm 2 m/s 729 mmHg 75%
    18:00 -8°C° 0 mm 1 m/s 729 mmHg 73%
    19:00 -8°C° 0 mm 1 m/s 729 mmHg 72%
    20:00 -8°C° 0 mm 1 m/s 729 mmHg 71%
    21:00 -8°C° 0 mm 1 m/s 729 mmHg 71%
    22:00 -8°C° 0 mm 1 m/s 729 mmHg 71%
    23:00 -8°C° 0 mm 1 m/s 729 mmHg 72%

    24 Ianuarie, Joi

    Timp Temperatura Precipitaţii Vânt Presiune Umiditate
    00:00 -9°C° 0 mm 1 m/s 729 mmHg 72%
    01:00 -9°C° 0 mm 1 m/s 729 mmHg 73%
    02:00 -9°C° 0 mm 1 m/s 729 mmHg 73%
    03:00 -9°C° 0 mm 1 m/s 729 mmHg 74%
    04:00 -9°C° 0 mm 1 m/s 728 mmHg 75%
    05:00 -9°C° 0 mm 1 m/s 728 mmHg 75%
    06:00 -10°C° 0 mm 2 m/s 728 mmHg 75%
    07:00 -10°C° 0 mm 2 m/s 728 mmHg 75%
    08:00 -10°C° 0 mm 2 m/s 728 mmHg 75%
    09:00 -10°C° 0 mm 2 m/s 728 mmHg 75%
    10:00 -10°C° 0 mm 2 m/s 728 mmHg 74%
    11:00 -9°C° 0 mm 2 m/s 728 mmHg 74%
    12:00 -10°C° 0 mm 3 m/s 728 mmHg 73%
    13:00 -9°C° 0 mm 3 m/s 727 mmHg 73%
    14:00 -9°C° 0 mm 4 m/s 727 mmHg 75%
    15:00 -8°C° 0 mm 4 m/s 727 mmHg 77%
    16:00 -7°C° 0 mm 5 m/s 726 mmHg 80%
    17:00 -7°C° 0.1 mm 5 m/s 726 mmHg 81%
    18:00 -7°C° 0.1 mm 5 m/s 726 mmHg 83%
    19:00 -6°C° 0.1 mm 5 m/s 725 mmHg 84%
    20:00 -6°C° 0.1 mm 6 m/s 725 mmHg 83%
    21:00 -7°C° 0.1 mm 7 m/s 724 mmHg 82%
    22:00 -7°C° 0.1 mm 8 m/s 724 mmHg 81%
    23:00 -7°C° 0.1 mm 8 m/s 724 mmHg 81%

    25 Ianuarie, Vineri

    Timp Temperatura Precipitaţii Vânt Presiune Umiditate
    00:00 -7°C° 0.1 mm 8 m/s 724 mmHg 82%
    01:00 -6°C° 0.1 mm 9 m/s 724 mmHg 83%
    02:00 -6°C° 0.3 mm 8 m/s 724 mmHg 86%
    03:00 -6°C° 0.3 mm 8 m/s 724 mmHg 90%
    04:00 -6°C° 0.3 mm 8 m/s 725 mmHg 94%
    05:00 -6°C° 0.3 mm 7 m/s 725 mmHg 92%
    06:00 -6°C° 0.3 mm 7 m/s 726 mmHg 90%
    07:00 -6°C° 0.3 mm 7 m/s 726 mmHg 88%
    08:00 -6°C° 1 mm 8 m/s 727 mmHg 90%
    09:00 -5°C° 1 mm 10 m/s 727 mmHg 91%
    10:00 -6°C° 1 mm 11 m/s 728 mmHg 93%
    11:00 -6°C° 0.4 mm 12 m/s 729 mmHg 91%
    12:00 -6°C° 0.4 mm 13 m/s 729 mmHg 89%
    13:00 -8°C° 0.4 mm 14 m/s 730 mmHg 86%
    14:00 -8°C° 0.1 mm 14 m/s 731 mmHg 86%
    15:00 -7°C° 0.1 mm 13 m/s 732 mmHg 86%
    16:00 -7°C° 0.1 mm 12 m/s 733 mmHg 86%
    17:00 -8°C° 0.1 mm 12 m/s 734 mmHg 86%
    18:00 -8°C° 0.1 mm 11 m/s 735 mmHg 87%
    19:00 -8°C° 0.1 mm 11 m/s 736 mmHg 88%
    20:00 -8°C° 0.1 mm 10 m/s 736 mmHg 87%
    21:00 -9°C° 0.1 mm 10 m/s 737 mmHg 87%
    22:00 -9°C° 0.1 mm 9 m/s 738 mmHg 87%
    23:00 -8°C° 0.1 mm 8 m/s 738 mmHg 86%
    Arată mai mult